"Pseudo-MPEC" for C5ZTX92

Created 2021 Sep 22 15:07:05 UT using Find_Orb

Click here for an explanation of pseudo-MPECs

 
 Astrometry: 
     C5ZTX92  C2021 09 16.44265304 25 50.67 +20 25 12.0    ~9GBM 20.44GVNEOCPG96
     C5ZTX92  C2021 09 16.44724804 25 53.13 +20 24 30.9    ~9GBM       VNEOCPG96
     C5ZTX92  C2021 09 16.45185004 25 55.59 +20 23 49.6    ~9GBM 20.49GVNEOCPG96
     C5ZTX92  C2021 09 16.45900904 25 59.40 +20 22 44.8    ~9GBM 20.54GVNEOCPG96
     C5ZTX92 mC2021 09 16.50272204 26 22.81 +20 16 08.3    ~9GCM 20.27GVNEOCPG96
     C5ZTX92 mC2021 09 16.50403504 26 23.48 +20 15 56.2    ~9GCM 20.68GVNEOCPG96
     C5ZTX92 mC2021 09 16.50450404 26 23.76 +20 15 52.1    ~9GCM 20.68GVNEOCPG96
     C5ZTX92 mC2021 09 18.42349704 44 34.21 +15 05 45.7    ~9IAb 19.75GVNEOCPG96
     C5ZTX92 mC2021 09 18.42391004 44 34.42 +15 05 41.5    ~9IAb 19.88GVNEOCPG96
     C5ZTX92 mC2021 09 18.42432204 44 34.65 +15 05 37.5    ~9IAb 20.03GVNEOCPG96
     C5ZTX92 mC2021 09 18.42473404 44 34.86 +15 05 33.7    ~9IAb       VNEOCPG96

Station data:
(G96) Mt. Lemmon Survey  (N32.442754 W110.788720)  US/Arizona.  Observers T.
   A. Pruyne, B. M. Africano, E. J. Christensen, G. A. Farneth, D. C. Fuls,
   A. R. Gibbs, A. D. Grauer, H. Gröller, J. A. Johnson, R. A. Kowalski, S.
   M. Larson, G. J. Leonard, D. Rankin, R. L. Seaman, F. C. Shelly. 1.5-m
   reflector + 10K CCD.

Orbital elements:  C5ZTX92
   Perihelion 2021 Dec 11.148007 +/- 1.16378 TT =  3:33:07 (JD 2459559.648007)
Epoch 2021 Sep 18.0 TT = JDT 2459475.5   Earth MOID: 0.0444   AutoNEOCP
M 282.49584345 +/- 1.9153733        (J2000 ecliptic)
n   0.92104565 +/- 0.00991917       Peri.  284.22066 +/- 1.3843807
a   1.04620135 +/- 0.00751118       Node   180.52987 +/- 0.2036433
e   0.2166758 +/- 0.00672129        Incl.   24.83027 +/- 0.7362924
P   1.07/390.85d           H 22.4   G  0.15   U  9.6  
q 0.81951476 +/- 0.00503691    Q 1.27288793 +/- 0.0148592
From 11 observations 2021 Sept. 16-18 (47.6 hr); mean residual 0".20
Residuals in arcseconds: 
210916 G96  .11+  .34-    210916 G96  .19+  .03+    210918 G96  .01-  .20-    
210916 G96  .08+  .01+    210916 G96  .26-  .12-    210918 G96  .01+  .01+    
210916 G96  .02+  .25+    210916 G96  .15+  .04+    210918 G96  .26-  .42+    
210916 G96  .29-  .13+    210918 G96  .27+  .22-    

Ephemerides (geocentric):
Date (UTC) HH   RA              Dec         delta   r     elong  mag " sig PA
---- -- -- --  -------------   -----------  ------ ------ -----  --- ---- ---
2021 09 22 15  05 25 40.552   +02 01 14.55  .12553 1.0289  98.1 20.6  106 143
2021 09 22 16  05 26 05.349   +01 53 00.78  .12550 1.0287  98.1 20.6  107 143
2021 09 22 17  05 26 30.148   +01 44 46.80  .12548 1.0286  98.0 20.6  109 143
2021 09 22 18  05 26 54.948   +01 36 32.60  .12545 1.0284  97.9 20.6  111 143
2021 09 22 19  05 27 19.751   +01 28 18.21  .12543 1.0283  97.9 20.6  113 143
2021 09 22 20  05 27 44.556   +01 20 03.63  .12541 1.0281  97.8 20.6  115 144
2021 09 22 21  05 28 09.363   +01 11 48.87  .12539 1.0280  97.7 20.6  116 144
2021 09 22 22  05 28 34.171   +01 03 33.94  .12537 1.0278  97.7 20.6  118 144
2021 09 22 23  05 28 58.980   +00 55 18.85  .12535 1.0277  97.6 20.6  120 144
2021 09 23 00  05 29 23.792   +00 47 03.61  .12534 1.0275  97.6 20.6  122 144
2021 09 23 01  05 29 48.604   +00 38 48.23  .12532 1.0274  97.5 20.6  124 144
2021 09 23 02  05 30 13.418   +00 30 32.72  .12531 1.0272  97.4 20.6  126 144
2021 09 23 03  05 30 38.232   +00 22 17.10  .12529 1.0271  97.4 20.6  128 144
2021 09 23 04  05 31 03.048   +00 14 01.36  .12528 1.0269  97.3 20.6  130 144
2021 09 23 05  05 31 27.864   +00 05 45.53  .12527 1.0267  97.2 20.6  132 144
2021 09 23 06  05 31 52.681   -00 02 30.39  .12526 1.0266  97.2 20.6  134 144
2021 09 23 07  05 32 17.499   -00 10 46.39  .12525 1.0264  97.1 20.6  136 144
2021 09 23 08  05 32 42.317   -00 19 02.46  .12524 1.0263  97.0 20.6  137 144
2021 09 23 09  05 33 07.135   -00 27 18.59  .12523 1.0261  97.0 20.6  139 144
2021 09 23 10  05 33 31.954   -00 35 34.76  .12523 1.0260  96.9 20.7  141 144
2021 09 23 11  05 33 56.773   -00 43 50.98  .12522 1.0258  96.8 20.7  143 144
2021 09 23 12  05 34 21.592   -00 52 07.22  .12522 1.0257  96.8 20.7  146 144
2021 09 23 13  05 34 46.410   -01 00 23.48  .12521 1.0255  96.7 20.7  148 144
2021 09 23 14  05 35 11.229   -01 08 39.74  .12521 1.0254  96.6 20.7  150 144
2021 09 23 15  05 35 36.047   -01 16 56.01  .12521 1.0252  96.6 20.7  152 144
2021 09 23 16  05 36 00.864   -01 25 12.26  .12521 1.0250  96.5 20.7  154 144
2021 09 23 17  05 36 25.681   -01 33 28.48  .12521 1.0249  96.4 20.7  156 144
2021 09 23 18  05 36 50.497   -01 41 44.68  .12522 1.0247  96.4 20.7  158 144
2021 09 23 19  05 37 15.312   -01 50 00.83  .12522 1.0246  96.3 20.7  160 144
2021 09 23 20  05 37 40.127   -01 58 16.93  .12522 1.0244  96.2 20.7  162 144
2021 09 23 21  05 38 04.940   -02 06 32.96  .12523 1.0243  96.2 20.7  164 144
2021 09 23 22  05 38 29.752   -02 14 48.93  .12524 1.0241  96.1 20.7  166 144
2021 09 23 23  05 38 54.563   -02 23 04.80  .12524 1.0240  96.0 20.7  168 144
2021 09 24 00  05 39 19.372   -02 31 20.59  .12525 1.0238  96.0 20.7  171 144
2021 09 24 01  05 39 44.180   -02 39 36.27  .12526 1.0237  95.9 20.7  173 144
2021 09 24 02  05 40 08.986   -02 47 51.83  .12527 1.0235  95.8 20.7  175 144
2021 09 24 03  05 40 33.790   -02 56 07.28  .12529 1.0233  95.7 20.7  177 144
2021 09 24 04  05 40 58.592   -03 04 22.59  .12530 1.0232  95.7 20.7  179 144
2021 09 24 05  05 41 23.392   -03 12 37.75  .12531 1.0230  95.6 20.7  181 144
2021 09 24 06  05 41 48.190   -03 20 52.76  .12533 1.0229  95.5 20.7  184 144
2021 09 24 07  05 42 12.986   -03 29 07.61  .12535 1.0227  95.5 20.7  186 144
2021 09 24 08  05 42 37.780   -03 37 22.28  .12536 1.0226  95.4 20.7  188 144
2021 09 24 09  05 43 02.571   -03 45 36.77  .12538 1.0224  95.3 20.7  190 144
2021 09 24 10  05 43 27.359   -03 53 51.07  .12540 1.0223  95.3 20.7  193 144
2021 09 24 11  05 43 52.145   -04 02 05.16  .12542 1.0221  95.2 20.7  195 144
2021 09 24 12  05 44 16.927   -04 10 19.04  .12544 1.0220  95.1 20.7  197 144
2021 09 24 13  05 44 41.707   -04 18 32.70  .12547 1.0218  95.1 20.7  199 144
2021 09 24 14  05 45 06.484   -04 26 46.12  .12549 1.0216  95.0 20.7  202 144